EW3976 Weather Reports


time (UTC)temp
C
wind
direction
speed
KPH
gust
KPH
rain 1hr
cm
rain 24hr
cm
rain mn
cm
humidity
%
barometer
mb
20220124095116 5 0.0 0.0 0.00 0.00 0.00 85 1023.7
20220124094115 5 0.0 0.0 0.00 0.00 0.00 85 1023.7
20220124093116 5 0.0 0.0 0.00 0.00 0.00 85 1023.7
20220124092115 5 0.0 0.0 0.00 0.00 0.00 85 1023.6
20220124091115 5 0.0 0.0 0.00 0.00 0.00 85 1023.6
20220124090116 5 0.0 0.0 0.00 0.00 0.00 84 1023.7
20220124085117 5 0.0 0.0 0.00 0.00 0.00 84 1023.8
20220124084115 5 0.0 0.0 0.00 0.00 0.00 84 1023.9
20220124083117 5 0.0 0.0 0.00 0.00 0.00 83 1024.0
20220124082117 5 0.0 0.0 0.00 0.00 0.00 84 1024.1
20220124081117 6 0.0 0.0 0.00 0.00 0.00 83 1024.1
20220124080117 6 0.0 0.0 0.00 0.00 0.00 84 1024.2
20220124075120 6 0.0 0.0 0.00 0.00 0.00 84 1024.2
20220124074116 6 0.0 0.0 0.00 0.00 0.00 83 1024.2
20220124073116 6 0.0 0.0 0.00 0.00 0.00 83 1024.2
20220124072117 6 0.0 0.0 0.00 0.00 0.00 83 1024.3
20220124071117 6 0.0 0.0 0.00 0.00 0.00 82 1024.3
20220124070116 6 0.0 0.0 0.00 0.00 0.00 82 1024.4
20220124065116 7 0.0 0.0 0.00 0.00 0.00 82 1024.3
20220124064116 7 0.0 0.0 0.00 0.00 0.00 82 1024.3
20220124063118 6 0.0 0.0 0.00 0.00 0.00 81 1024.2
20220124062117 7 0.0 0.0 0.00 0.00 0.00 81 1024.2
20220124061116 7 0.0 0.0 0.00 0.00 0.00 81 1024.3
20220124060116 7 0.0 0.0 0.00 0.00 0.00 80 1024.3
20220124055116 7 0.0 0.0 0.00 0.00 0.00 80 1024.4
20220124054116 7 0.0 0.0 0.00 0.00 0.00 78 1024.3
20220124053116 8 0.0 0.0 0.00 0.00 0.00 77 1024.3
20220124052116 8 0.0 0.0 0.00 0.00 0.00 77 1024.4
20220124051116 8 0.0 0.0 0.00 0.00 0.00 76 1024.4
20220124050116 8 0.0 0.0 0.00 0.00 0.00 76 1024.3
20220124045116 8 0.0 0.0 0.00 0.00 0.00 76 1024.3
20220124044116 8 0.0 0.0 0.00 0.00 0.00 76 1024.1
20220124043116 9 0.0 0.0 0.00 0.00 0.00 75 1024.1
20220124042117 9 0.0 0.0 0.00 0.00 0.00 74 1024.0
20220124041116 10 0.0 0.0 0.00 0.00 0.00 74 1024.1
20220124040116 10 0.0 0.0 0.00 0.00 0.00 72 1024.0
20220124035117 10 0.0 1.6 0.00 0.00 0.00 71 1024.0
20220124034116 10 0.0 0.0 0.00 0.00 0.00 70 1023.9
20220124033116 11 203 1.6 1.6 0.00 0.00 0.00 69 1024.0
20220124032116 11 0.0 1.6 0.00 0.00 0.00 67 1024.0
20220124031116 12 0.0 0.0 0.00 0.00 0.00 66 1024.0
20220124030116 12 0.0 0.0 0.00 0.00 0.00 66 1024.0
20220124025116 12 225 1.6 3.2 0.00 0.00 0.00 65 1024.0
20220124024119 12 0.0 1.6 0.00 0.00 0.00 64 1024.0
20220124023116 13 0.0 0.0 0.00 0.00 0.00 62 1023.9
20220124022116 13 225 1.6 3.2 0.00 0.00 0.00 61 1023.8
20220124021116 13 248 1.6 1.6 0.00 0.00 0.00 57 1023.7
20220124020116 14 248 1.6 1.6 0.00 0.00 0.00 52 1023.7
20220124015121 15 0.0 1.6 0.00 0.00 0.00 48 1023.6
20220124014116 16 0.0 1.6 0.00 0.00 0.00 44 1023.6
20220124013116 16 0.0 1.6 0.00 0.00 0.00 44 1023.5
20220124012117 16 0.0 1.6 0.00 0.00 0.00 43 1023.5
20220124011116 17 315 3.2 4.8 0.00 0.00 0.00 42 1023.5
20220124010116 17 338 1.6 3.2 0.00 0.00 0.00 44 1023.6
20220124005116 17 315 3.2 4.8 0.00 0.00 0.00 43 1023.6
20220124004116 17 338 6.4 9.7 0.00 0.00 0.00 43 1023.5
20220124003116 17 338 4.8 6.4 0.00 0.00 0.00 42 1023.5
20220124002117 17 0 9.7 11.3 0.00 0.00 0.00 41 1023.5
20220124001117 18 315 6.4 8.0 0.00 0.00 0.00 39 1023.5
20220124000116 18 0.0 3.2 0.00 0.00 0.00 40 1023.4
20220123235116 18 338 4.8 8.0 0.00 0.00 0.00 40 1023.5
20220123234117 18 293 1.6 3.2 0.00 0.00 0.00 40 1023.5
20220123233116 18 338 6.4 9.7 0.00 0.00 0.00 40 1023.7
20220123232117 18 23 6.4 8.0 0.00 0.00 0.00 40 1023.7
20220123231119 18 0.0 1.6 0.00 0.00 0.00 40 1023.7
20220123230116 17 338 3.2 4.8 0.00 0.00 0.00 41 1023.6
20220123225116 17 293 3.2 4.8 0.00 0.00 0.00 41 1023.7
20220123224117 17 293 1.6 1.6 0.00 0.00 0.00 42 1023.7
20220123223116 17 0.0 3.2 0.00 0.00 0.00 42 1023.7
20220123222116 17 0 6.4 9.7 0.00 0.00 0.00 42 1023.8
20220123221116 17 293 6.4 6.4 0.00 0.00 0.00 43 1023.9
20220123220116 17 23 1.6 8.0 0.00 0.00 0.00 42 1023.8
20220123215116 17 0 4.8 6.4 0.00 0.00 0.00 44 1023.9
20220123214116 17 293 3.2 3.2 0.00 0.00 0.00 44 1024.0
20220123213116 16 338 3.2 6.4 0.00 0.00 0.00 45 1024.1
20220123212116 16 293 6.4 8.0 0.00 0.00 0.00 45 1024.2
20220123211116 16 315 3.2 4.8 0.00 0.00 0.00 48 1024.3
20220123210116 15 315 1.6 3.2 0.00 0.00 0.00 48 1024.5
20220123205115 15 315 4.8 6.4 0.00 0.00 0.00 48 1024.8
20220123204116 15 293 8.0 9.7 0.00 0.00 0.00 49 1024.9
20220123203116 15 338 6.4 9.7 0.00 0.00 0.00 49 1025.1
20220123202116 15 315 8.0 11.3 0.00 0.00 0.00 47 1025.3
20220123201116 15 338 6.4 9.7 0.00 0.00 0.00 47 1025.3
20220123200116 14 315 8.0 9.7 0.00 0.00 0.00 45 1025.3
20220123195116 14 315 4.8 6.4 0.00 0.00 0.00 47 1025.3
20220123194116 13 315 6.4 9.7 0.00 0.00 0.00 48 1025.5
20220123193115 13 293 4.8 6.4 0.00 0.00 0.00 51 1025.5
20220123192117 13 338 8.0 9.7 0.00 0.00 0.00 51 1025.6
20220123191115 13 315 6.4 9.7 0.00 0.00 0.00 51 1025.6
20220123190116 13 315 6.4 9.7 0.00 0.00 0.00 52 1025.8
20220123185116 13 315 4.8 6.4 0.00 0.00 0.00 53 1025.8
20220123184115 13 315 6.4 9.7 0.00 0.00 0.00 54 1025.9
20220123183115 12 338 4.8 6.4 0.00 0.00 0.00 54 1025.8
20220123182115 12 23 3.2 4.8 0.00 0.00 0.00 55 1025.7
20220123181115 12 45 1.6 3.2 0.00 0.00 0.00 56 1025.6
20220123180115 12 0.0 0.0 0.00 0.00 0.00 58 1025.5
20220123175116 11 113 1.6 3.2 0.00 0.00 0.00 58 1025.4
20220123174116 11 45 1.6 3.2 0.00 0.00 0.00 60 1025.4
20220123173115 11 158 1.6 1.6 0.00 0.00 0.00 61 1025.3
20220123172115 10 0.0 0.0 0.00 0.00 0.00 64 1025.3
20220123171116 8 158 1.6 3.2 0.00 0.00 0.00 65 1025.3
20220123170115 7 68 1.6 3.2 0.00 0.00 0.00 68 1025.4
20220123165116 7 45 3.2 4.8 0.00 0.00 0.00 70 1025.4
20220123164116 7 90 1.6 3.2 0.00 0.00 0.00 72 1025.3
20220123163115 6 68 1.6 3.2 0.00 0.00 0.00 73 1025.3
20220123162116 6 113 1.6 1.6 0.00 0.00 0.00 73 1025.1
20220123161115 6 180 1.6 1.6 0.00 0.00 0.00 77 1025.1
20220123160115 5 0.0 1.6 0.00 0.00 0.00 80 1025.1
20220123155115 3 158 1.6 3.2 0.00 0.00 0.00 82 1025.1
20220123154115 3 0.0 0.0 0.00 0.00 0.00 84 1024.9
20220123153115 2 0.0 0.0 0.00 0.00 0.00 84 1024.9
20220123152116 3 0.0 0.0 0.00 0.00 0.00 85 1024.9
20220123151115 2 0.0 0.0 0.00 0.00 0.00 85 1024.8
20220123150115 2 0.0 0.0 0.00 0.00 0.00 84 1024.7
20220123145116 2 0.0 0.0 0.00 0.00 0.00 84 1024.5
20220123144232 2 0.0 0.0 0.00 0.00 0.00 84 1024.6
20220123143515 3 0.0 0.0 0.00 0.00 0.00 84 1024.5
20220123142515 2 0.0 0.0 0.00 0.00 0.00 85 1024.5
20220123141515 2 0.0 0.0 0.00 0.00 0.00 84 1024.4
20220123140515 3 0.0 0.0 0.00 0.00 0.00 84 1024.4
20220123135515 3 0.0 0.0 0.00 0.00 0.00 83 1024.4
20220123134515 3 0.0 0.0 0.00 0.00 0.00 83 1024.4
20220123133517 3 0.0 0.0 0.00 0.00 0.00 83 1024.2
20220123132516 3 0.0 0.0 0.00 0.00 0.00 82 1024.0
20220123131515 3 0.0 0.0 0.00 0.00 0.00 82 1023.8
20220123130515 3 0.0 0.0 0.00 0.00 0.00 82 1023.8
20220123125515 3 0.0 0.0 0.00 0.00 0.00 82 1023.7
20220123124515 3 0.0 0.0 0.00 0.00 0.00 82 1023.7
20220123123515 3 0.0 0.0 0.00 0.00 0.00 82 1023.7
20220123122515 3 158 1.6 3.2 0.00 0.00 0.00 83 1023.6
20220123121515 3 0.0 0.0 0.00 0.00 0.00 82 1023.5
20220123120515 3 0.0 0.0 0.00 0.00 0.00 82 1023.5
20220123115515 3 0.0 0.0 0.00 0.00 0.00 81 1023.6
20220123114515 4 0.0 0.0 0.00 0.00 0.00 80 1023.5
20220123113515 4 0.0 0.0 0.00 0.00 0.00 82 1023.4
20220123112516 3 0.0 0.0 0.00 0.00 0.00 81 1023.3
20220123111515 4 0.0 0.0 0.00 0.00 0.00 80 1023.2
20220123110515 4 0.0 0.0 0.00 0.00 0.00 80 1023.3
20220123105515 4 225 1.6 1.6 0.00 0.00 0.00 81 1023.4
20220123104515 4 0.0 0.0 0.00 0.00 0.00 79 1023.3
20220123103515 5 0.0 0.0 0.00 0.00 0.00 80 1023.2
20220123102515 5 203 1.6 1.6 0.00 0.00 0.00 79 1023.1
20220123101615 5 203 1.6 1.6 0.00 0.00 0.00 79 1023.0
20220123101319 5 203 1.6 3.2 0.00 0.00 0.00 79 1023.0
20220123100317 5 225 1.6 1.6 0.00 0.00 0.00 78 1022.8